This demonstration page uses our WeatherBlox Daily Observations layout. Learn more.

Left ArrowRight Arrow

44.8408, -93.29828

Hourly Observations for March 14, 2018

Temp ( °F °C ) Dew Point ( °F °C ) Humidity (%) Winds ( mph kmh ) Pressure ( in mb ) Visibility ( mi km ) Precip ( " mm )
12:53 am 00:53 Mostly Cloudy 28 -2.2 22 -5.6 78 78 SW 5 7 30.23 1024 10 16 0.00 0.00
1:53 am 01:53 Cloudy 26 -3.3 21 -6.1 81 81 SW 7 11 30.21 1023 10 16 0.00 0.00
2:53 am 02:53 Cloudy 26 -3.3 21 -6.1 81 81 WSW 6 9 30.18 1022 10 16 0.00 0.00
3:53 am 03:53 Mostly Clear 25 -3.9 19 -7.2 78 78 SW 9 15 30.14 1021 10 16 0.00 0.00
4:53 am 04:53 Mostly Clear 24 -4.4 19 -7.2 81 81 SW 6 9 30.11 1020 10 16 0.00 0.00
5:53 am 05:53 Mostly Clear 23 -5 17 -8.3 78 78 SW 7 11 30.08 1019 10 16 0.00 0.00
6:53 am 06:53 Mostly Clear 24 -4.4 15 -9.4 68 68 SW 8 13 30.05 1018 10 16 0.00 0.00
7:53 am 07:53 Mostly Sunny 24 -4.4 16 -8.9 71 71 WSW 7 11 30.02 1017 10 16 0.00 0.00
8:53 am 08:53 Sunny 27 -2.8 18 -7.8 69 69 WSW 10 17 29.99 1016 10 16 0.00 0.00
9:53 am 09:53 Sunny 31 -0.6 19 -7.2 61 61 W 10 17 29.98 1015 10 16 0.00 0.00
10:53 am 10:53 Sunny 35 1.7 21 -6.1 57 57 W 9 15 29.96 1015 10 16 0.00 0.00
11:53 am 11:53 Sunny 39 3.9 23 -5 53 53 NW 7 11 29.94 1014 10 16 0.00 0.00
12:53 pm 12:53 Sunny 41 5 25 -3.9 53 53 NNW 8 13 29.93 1014 10 16 0.00 0.00
1:53 pm 13:53 Mostly Sunny 42 5.6 25 -3.9 51 51 NW 8 13 29.91 1013 10 16 0.00 0.00
2:53 pm 14:53 Mostly Cloudy 45 7.2 25 -3.9 46 46 NW 10 17 29.89 1012 10 16 0.00 0.00
3:53 pm 15:53 Partly Cloudy 45 7.2 25 -3.9 46 46 WNW 10 17 29.89 1012 10 16 0.00 0.00
4:53 pm 16:53 Mostly Cloudy 45 7.2 26 -3.3 48 48 NW 14 22 29.88 1012 10 16 0.00 0.00
5:53 pm 17:53 Mostly Sunny 45 7.2 26 -3.3 48 48 WNW 12 19 29.88 1012 10 16 0.00 0.00
6:53 pm 18:53 Mostly Sunny 43 6.1 26 -3.3 51 51 NW 10 17 29.88 1012 10 16 0.00 0.00
7:53 pm 19:53 Clear 39 3.9 26 -3.3 60 60 WNW 5 7 29.91 1013 10 16 0.00 0.00
8:53 pm 20:53 Clear 39 3.9 25 -3.9 57 57 WNW 3 6 29.91 1013 10 16 0.00 0.00
9:53 pm 21:53 Clear 38 3.3 25 -3.9 60 60 W 5 7 29.91 1013 10 16 0.00 0.00
10:53 pm 22:53 Clear 34 1.1 25 -3.9 70 70 WNW 5 7 29.91 1013 10 16 0.00 0.00
11:53 pm 23:53 Clear 34 1.1 24 -4.4 67 67 WNW 5 7 29.91 1013 10 16 0.00 0.00

Powered by AerisWeather